Location: Ingoldesthorpe
(52.8667°N, 0.5167°E)
Time: 23:49:54
(UTC+00:00)

Cosmos 1766 - Pass Details

Date: 19 May 2025
Orbit: 443 x 457 km, 82.5° (Epoch: 18 June)

Event Time Altitude Azimuth Distance (km) Brightness Sun altitude
Rises 23:00:19 0° 346° (NNW) 2,467 8.5 -16.2°
Reaches altitude 10° 23:02:24 10° 344° (NNW) 1,587 7.0 -16.3°
Maximum altitude 23:05:49 63° 263° (W) 503 3.1 -16.4°
Enters shadow 23:06:57 38° 196° (SSW) 702 3.4 -16.4°
